Location: Akdamlar
(36.8729°N, 30.5187°E)
Time: 20:28:51
(UTC+00:00)

Cosmos 1782 Rocket - Pass Details

Date: 18 September 2020
Orbit: 607 x 632 km, 82.5° (Epoch: 24 October)

Event Time Altitude Azimuth Distance (km) Brightness Sun altitude
Rises 17:02:14 0° 195° (SSW) 2,872 7.0 -13.1°
Reaches altitude 10° 17:04:28 10° 199° (SSW) 1,975 6.2 -13.5°
Maximum altitude 17:08:47 59° 278° (W) 721 4.2 -14.4°
Drops below altitude 10° 17:13:10 10° 359° (N) 2,005 6.4 -15.2°
Sets 17:15:27 0° 3° (N) 2,920 7.2 -15.7°
